Back to catalog

COSMOS 2251 DEB

AliveLEO
NORAD 36385·DEBRIS·🇷🇺 Russia

Launched Jun 16, 1993 from Plesetsk Cosmodrome

Loading…

Next Passes (next 24 hours)

TLE

FreshSource: Space-Track

Epoch: Sep 14, 2026, 12:45 UTC

1 36385U 93036AZN 26257.53153694  .00005680  00000-0  68999-3 0  9997
2 36385  73.9692 332.6128 0127992  79.7359 281.8218 14.78011814891708

Track COSMOS 2251 DEB in real time with AllMySat

Download on the App Store